Other Public Products
Issued by NWS Grand Forks, ND

Home | Current Version | Previous Version | Graphics & Text | Print | Product List | Glossary On
Versions: 1 2 3 4 5 6 7 8 9 10 11 12 13 14 15 16 17 18 19 20 21 22 23 24 25 26 27 28 29 30 31 32 33 34 35 36 37 38 39 40 41 42 43 44 45 46 47 48 49 50
000
FPUS83 KFGF 231810
OPUFGF
PRAIRIE TO PINES WEATHER ROUNDUP
NATIONAL WEATHER SERVICE EASTERN NORTH DAKOTA/GRAND FORKS ND
1200 PM CST THU FEB 23 2017

 **SATELLITE DATA USED TO AUGMENT SKY COVER AT AUTOMATED STATIONS**
 *****  WEATHER ACROSS EASTERN NORTH DAKOTA  *****

CITY           SKY/WX    TMP DP  RH WIND       PRES   REMARKS
GRAND FORKS    CLOUDY    28  18  66 NE15      30.08R WCI  16
6HR MIN TEMP:  27; 6HR MAX TEMP:  30;

GRAND FORKS AF CLOUDY    26  22  84 NE14      30.08S WCI  15
GRAND CITY NWS NOT AVBL
BUXTON         NOT AVBL
DEVILS LAKE    CLOUDY    25  21  85 E8        30.05F WCI  16
6HR MIN TEMP:  25; 6HR MAX TEMP:  27;

FARGO          CLOUDY    31  22  69 NE16      30.04F WCI  20
6HR MIN TEMP:  29; 6HR MAX TEMP:  31;

WAHPETON ARPT  CLOUDY    30  21  69 N16G25    30.02S WCI  19
$$

 *****  WEATHER ACROSS CENTRAL AND WESTERN NORTH DAKOTA  *****

CITY           SKY/WX    TMP DP  RH WIND       PRES   REMARKS
JAMESTOWN      CLOUDY    31  23  72 NE10      30.00F WCI  22
6HR MIN TEMP:  24; 6HR MAX TEMP:  31;

BISMARCK       CLOUDY    31  25  78 NE8       30.02F WCI  23
6HR MIN TEMP:  27; 6HR MAX TEMP:  32;

MINOT          CLOUDY    24  17  74 N13       30.09S WCI  12
6HR MIN TEMP:  23; 6HR MAX TEMP:  32; 6HR PCP: TRACE;

MINOT AFB      CLOUDY    23  16  77 NE7       30.09S WCI  14
6HR MIN TEMP:  21; 6HR MAX TEMP:  28; 6HR PCP: TRACE;

GARRISON         N/A     23  18  81 NE14G23   30.04S WCI  11
6HR MIN TEMP:  23; 6HR MAX TEMP:  29; 6HR PCP:  0.06;

WILLISTON      CLOUDY    27  24  89 NE14      30.09R FOG     WCI  16
6HR MIN TEMP:  26; 6HR MAX TEMP:  30; 6HR PCP: TRACE;

DICKINSON      CLOUDY    29  25  85 N14       29.96S WCI  18
6HR MIN TEMP:  24; 6HR MAX TEMP:  29; 6HR PCP: TRACE;

HETTINGER      PTSUNNY   30  25  81 NE15      29.96S WCI  19
6HR MIN TEMP:  25; 6HR MAX TEMP:  31;

$$

 *****  OTHER OBSERVATIONS NORTHEAST NORTH DAKOTA  *****

CITY           SKY/WX    TMP DP  RH WIND       PRES   REMARKS
WALHALLA       NOT AVBL
LANGDON        NOT AVBL
CAVALIER         N/A     23  16  74 N12       30.12R WCI  12
GRAFTON          N/A     25  18  74 N13       30.12S WCI  13
CANDO          NOT AVBL
FORT TOTTEN      N/A     28  26  93 NE5       29.95S WCI  23
ROLLA          CLOUDY    21  19  93 N15       30.07S WCI   8
RUGBY            N/A     23  19  86 N15       30.07F WCI  10
 ***** THE ABOVE OBSERVATIONS ARE NON NWS ARE NOT QUALITY
        CONTROLLED AND MAY MIS-REPORT RAIN FOR SNOW...
$$

 *****  OTHER OBSERVATIONS SOUTHEAST NORTH DAKOTA *****

CITY           SKY/WX    TMP DP  RH WIND       PRES   REMARKS
COOPERSTOWN      N/A     30  25  80 NE13      30.03S WCI  20
VALLEY CITY    CLOUDY    28  27  93 NE14      30.04S WCI  17
OAKES          NOT AVBL
GWINNER        CLOUDY    30  27  86 N20       30.02S WCI  18
SHEYENNE NWR     N/A     29  21  71 NE13      29.95S WCI  19
BUFFALO        NOT AVBL
WYNDMERE       NOT AVBL
 ***** THE ABOVE OBSERVATIONS ARE NON NWS ARE NOT QUALITY
       CONTROLLED AND MAY MIS-REPORT RAIN FOR SNOW...
$$

  *****  WEATHER ACROSS NORTHERN MINNESOTA  *****

CITY           SKY/WX    TMP DP  RH WIND       PRES   REMARKS
FLAG ISLAND    FAIR      21   9  58 NW14G21   30.02F WCI   8
WARROAD        PTSUNNY   23  12  63 NW7       30.05S WCI  15
ROSEAU         CLOUDY    25  16  68 N10       30.05S WCI  15
HALLOCK        CLOUDY    25  16  68 N16       30.09S WCI  12
THF RVR FALLS    N/A     26  17  68 N16G24    30.06  WCI  14
HALSTAD          N/A     30  21  70 N18         N/A  WCI  17
FOSSTON        CLOUDY    25  19  80 N16       30.03F WCI  12
BAUDETTE       CLOUDY    20  10  65 NW12      30.02F WCI   8
6HR MIN TEMP:  19; 6HR MAX TEMP:  21; 6HR PCP: TRACE;

WASKISH        PTSUNNY   27  16  63 NW8       30.02F WCI  18
CROOKSTON      CLOUDY    28  21  74 NE10      30.08R WCI  19
$$
  *****  WEATHER ACROSS CENTRAL AND WEST MINNESOTA  *****

CITY           SKY/WX    TMP DP  RH WIND       PRES   REMARKS
BEMIDJI        FAIR      25  17  70 N9        29.99F WCI  15
PARK RAPIDS    CLOUDY    27  17  66 N12       29.97F WCI  17
6HR MIN TEMP:  23; 6HR MAX TEMP:  28;

WADENA         CLOUDY    27  21  80 N7        29.97F WCI  19
DETROIT LAKES  PTSUNNY   28  23  80 N6        30.00F WCI  22
MOORHEAD       CLOUDY    28  21  74 N14       30.04S WCI  17
FERGUS FALLS   PTSUNNY   27  19  74 N14       30.04S WCI  15
ELBOW LAKE     CLOUDY    27  22  81 E12       29.99S WCI  17
MORRIS MN      FAIR      30  25  80 N15       29.95F WCI  19
STAPLES        PTSUNNY   27  19  74 N9        29.98S WCI  17
WHEATON        CLOUDY    28  21  74 N18       30.02F WCI  16
$$
  *****  WEATHER ELSEWHERE ACROSS MINNESOTA  *****

CITY           SKY/WX    TMP DP  RH WIND       PRES   REMARKS
DULUTH         CLOUDY    26  21  81 N12       29.93S WCI  16
6HR MIN TEMP:  24; 6HR MAX TEMP:  26;

INTRNTL FALLS  FAIR      23  10  57 NW12      29.99F WCI  12
6HR MIN TEMP:  20; 6HR MAX TEMP:  25; 6HR PCP: TRACE;

ELY            FAIR      28  16  59 N13       29.91S WCI  18
CLOQUET        CLOUDY    27  21  80 N9        29.95R WCI  17
BRAINERD       CLOUDY    26  21  81 N8        29.98S WCI  18
6HR MIN TEMP:  21; 6HR MAX TEMP:  26;

HIBBING        CLOUDY    24  20  84 NW12      29.95R WCI  13
6HR MIN TEMP:  22; 6HR MAX TEMP:  25;

ALEXANDRIA     CLOUDY    27  22  81 NE14      29.96S WCI  16
6HR MIN TEMP:  26; 6HR MAX TEMP:  28;

SAINT CLOUD    CLOUDY    29  22  75 N9G17     29.96S WCI  20
6HR MIN TEMP:  26; 6HR MAX TEMP:  30;

MINNEAPOLIS    PTSUNNY   37  23  56 NE12G21   29.92F
6HR MIN TEMP:  31; 6HR MAX TEMP:  37;

$$

  *****  WEATHER ACROSS SOUTH DAKOTA  *****

CITY           SKY/WX    TMP DP  RH WIND       PRES   REMARKS
SIOUX FALLS    LGT SNOW  32  26  78 NE16      29.87F WCI  21
6HR MIN TEMP:  32; 6HR MAX TEMP:  33; 6HR PCP: TRACE;

BROOKINGS      CLOUDY    29  24  82 NE15      29.91R WCI  18
WATERTOWN      PTSUNNY   29  22  75 NE20      29.93R WCI  16
6HR MIN TEMP:  26; 6HR MAX TEMP:  30;

HURON          CLOUDY    32  24  72 NE16      29.94R WCI  21
6HR MIN TEMP:  28; 6HR MAX TEMP:  32;

SISSETON         N/A     30  24  78 NE21      29.98F WCI  17
ABERDEEN       CLOUDY    30  21  69 NE20G26   29.99S WCI  17
6HR MIN TEMP:  26; 6HR MAX TEMP:  30;

MITCHELL       CLOUDY    33  25  72 NE15      29.92F WCI  23
PIERRE         CLOUDY    31  23  72 E14       29.94R WCI  21
6HR MIN TEMP:  27; 6HR MAX TEMP:  32;

MOBRIDGE       CLOUDY    32  24  72 NE15      29.95S WCI  22
RAPID CITY     LGT SNOW  26  22  84 E13       29.89S VSB 1   WCI  15
6HR MIN TEMP:  25; 6HR MAX TEMP:  28; 6HR PCP:  0.09;

$$

  *****  SOME WEATHER IN NEARBY STATES *****

CITY           SKY/WX    TMP DP  RH WIND       PRES   REMARKS
GLASGOW MT     FAIR      29  22  75 E18       30.04S WCI  16
6HR MIN TEMP:  25; 6HR MAX TEMP:  30; 6HR PCP: TRACE;

GREAT FALLS MT CLOUDY    25  23  92 NE13      29.98S WCI  14
6HR MIN TEMP:  24; 6HR MAX TEMP:  27; 6HR PCP: TRACE;

CHEYENNE WY    SNOW      22  18  85 NE15G24   29.57S VSB 1/2 WCI   9
6HR MIN TEMP:  23; 6HR MAX TEMP:  27; 6HR PCP:  0.35;

SCOTTSBLUFF NE SNOW      25  21  85 NE20G28   29.69F VSB 1/2 WCI  11
6HR MIN TEMP:  25; 6HR MAX TEMP:  29; 6HR PCP:  0.33;

OMAHA NE       CLOUDY    41  33  73 NE15      29.69F
6HR MIN TEMP:  37; 6HR MAX TEMP:  41;

DES MOINES IA  CLOUDY    43  36  76 E16G24    29.73F
6HR MIN TEMP:  39; 6HR MAX TEMP:  43;

DAVENPORT IA   CLOUDY    47  39  74 NE13      29.80F
6HR MIN TEMP:  39; 6HR MAX TEMP:  47;

CHICAGO IL     CLOUDY    44  36  73 NE16      29.82F
6HR MIN TEMP:  44; 6HR MAX TEMP:  52;

EAU CLAIRE WI  CLOUDY    39  28  64 N9        29.89F
6HR MIN TEMP:  35; 6HR MAX TEMP:  40;

LA CROSSE WI   CLOUDY    43  31  62 NE10      29.87S
6HR MIN TEMP:  40; 6HR MAX TEMP:  44;

$$

  *****  SOME NATIONAL WEATHER *****

CITY           SKY/WX    TMP DP  RH WIND       PRES   REMARKS
LA GUARDIA NY  PTSUNNY   57  50  77 SW7       29.84F
6HR MIN TEMP:  43; 6HR MAX TEMP:  57;

RALEIGH NC     FAIR      72  51  47 SE9       29.91F



USA.gov is the U.S. government's official web portal to all federal, state and local government web resources and services.